Location: The Jewett Observatory
(46.7288°N, 117.1525°W)
Time: 18:49:20
(UTC-07:00)

Meteor 1-28 Rocket - Visible Passes

Search period start: 01 September 2014 00:00
Search period end: 11 September 2014 00:00
Orbit: 516 x 534 km, 97.3° (Epoch: 30 August)

Date Brightness Start Highest point End Pass type
(mag) Time Alt. Az. Time Alt. Az. Time Alt. Az.
01 Sep 3.1 21:16:18 10° NNE 21:20:12 86° ESE 21:22:43 21° S visible
02 Sep 3.2 21:04:26 10° NNE 21:08:17 62° E 21:10:29 24° S visible
02 Sep 6.3 22:40:15 10° NNW 22:42:04 13° WNW 22:43:53 10° W visible
03 Sep 3.5 20:52:38 10° NNE 20:56:22 45° E 20:58:15 25° SSE visible
03 Sep 6.1 22:27:47 10° NNW 22:30:18 17° WNW 22:32:48 10° WSW visible
04 Sep 3.9 20:40:53 10° NNE 20:44:24 33° E 20:46:00 23° SE visible
04 Sep 5.7 22:15:31 10° NNW 22:18:30 22° WNW 22:21:11 11° WSW visible
05 Sep 4.3 20:29:13 10° NE 20:32:26 25° E 20:33:44 21° SE visible
05 Sep 5.2 22:03:21 10° N 22:06:41 28° WNW 22:08:55 16° WSW visible
06 Sep 4.7 20:17:40 10° NE 20:20:25 19° E 20:21:28 17° ESE visible
06 Sep 4.7 21:51:15 10° N 21:54:50 37° WNW 21:56:39 23° WSW visible
07 Sep 5.0 20:06:19 10° ENE 20:08:24 14° E 20:09:12 13° ESE visible
07 Sep 4.0 21:39:13 10° N 21:42:59 50° WNW 21:44:23 32° SW visible
08 Sep 5.3 19:55:46 10° ENE 19:56:21 10° E 19:56:55 10° E visible
08 Sep 3.4 21:27:14 10° N 21:31:05 70° WNW 21:32:06 45° SW visible
09 Sep 3.1 21:15:18 10° NNE 21:19:10 86° ESE 21:19:49 60° S visible
10 Sep 3.1 21:03:24 10° NNE 21:07:14 62° E 21:07:32 59° SE visible
10 Sep 6.3 22:39:13 10° NW 22:41:00 13° WNW 22:42:43 10° W visible
